{"data":{"norad_id":59284,"intl_designator":"2024-052E","name":"YUNHAI-2 02E","alt_names":[],"object_type":"PAYLOAD","status":"ACTIVE","operator":null,"country":"PRC","launch_date":"2024-03-21","launch_site_code":"JSC","launch_vehicle":null,"mission":null,"orbit_class":"UNKNOWN","rcs_meters":null,"size_class":null,"mass_kg":null,"dimensions":null,"purposes":[],"wikipedia_slug":null,"has_3d_model":false,"image_url":null,"decayed_at":null,"tle_current":{"epoch":"2026-09-22T23:03:45.445824Z","epoch_age_seconds":48341,"freshness":"FRESH","line1":"1 59284U 24052E   26265.96094266  .00000028  00000+0  75736-4 0  9995","line2":"2 59284  50.0098 268.4595 0011711  40.1966 319.9813 14.27992418120901","mean_motion":14.27992418,"eccentricity":0.0011711,"inclination_deg":50.0098,"raan_deg":268.4595,"arg_perigee_deg":40.1966,"mean_anomaly_deg":319.9813,"bstar":7.5736e-5,"rev_number":12090,"period_min":100.84087155146,"perigee_km":790.044721553,"apogee_km":806.85372180141,"semimajor_km":7176.5862216772,"source":"CELESTRAK","updated_at":"2026-09-23T09:00:19.284778Z"}}}